CAPE
148 212 610 255 129 506 1015 918 971 719 1029 658 585 654 1043 648 497 381 284 108 62 60 4 0 0 0 0 0 0 0 0 0 0 0 0 0 0 0 0 3 0 0 0
178 78 519 155 142 739 583 731 171 134 522 1106 1046 877 801 1001 713 590 374 270 104 67 17 0 0 0 0 0 0 0 0 0 0 0 16 0 0 3 0 0 0 0 0
33 59 69 337 437 351 305 111 240 499 633 727 728 794 840 692 648 741 844 344 286 158 86 29 0 0 0 0 0 0 0 0 0 1 29 0 0 2 0 0 0 0 0
0 3 44 472 247 153 291 668 728 796 865 896 837 868 921 898 813 720 878 704 489 409 365 219 100 38 7 0 0 0 0 0 0 3 0 0 0 0 47 15 10 0 0
12 68 398 937 794 731 821 885 1030 1112 1055 850 961 1004 889 858 909 648 305 430 521 573 710 727 639 489 294 188 179 168 105 12 0 0 0 0 0 0 228 58 77 123 63
402 659 1244 1459 1362 1290 1220 846 401 167 43 3 2 3 4 2 1 0 0 0 0 1 3 36 103 232 464 554 626 590 546 474 203 0 0 0 0 0 263 194 116 188 354
756 930 1113 1143 608 377 145 9 0 0 0 0 0 0 0 0 0 0 0 0 0 0 0 0 0 0 0 0 0 19 340 379 205 0 0 0 0 0 79 256 142 128 301
532 215 178 210 130 1 0 0 0 0 0 0 0 0 0 0 0 0 0 0 0 0 0 0 0 0 0 0 0 0 0 0 95 4 0 1 12 308 444 341 238 216 225
4 0 0 0 0 0 0 0 0 0 0 0 0 0 0 0 0 0 0 0 0 0 0 0 0 0 0 0 0 0 0 0 0 0 0 0 49 435 634 680 408 283 226
0 0 0 0 0 0 0 0 0 0 0 0 0 0 0 0 0 0 0 0 0 0 0 0 0 0 0 0 0 0 0 0 0 0 0 0 29 216 647 483 319 239 187
0 0 0 0 0 0 0 0 0 0 0 0 0 0 0 0 0 0 0 0 0 0 0 0 0 0 0 0 0 0 0 0 0 0 0 0 0 12 331 504 425 353 315
0 0 0 0 0 0 0 0 0 0 0 0 0 0 0 0 0 0 0 0 0 0 0 0 0 0 0 0 0 0 0 0 0 0 0 0 0 0 27 130 158 99 38
0 0 0 0 0 0 0 0 0 0 0 0 0 0 0 0 0 0 0 0 0 0 0 0 0 0 0 0 0 0 0 0 0 0 0 0 0 0 0 0 0 0 0
0 0 0 0 0 0 0 0 0 0 0 0 0 0 0 0 0 0 0 0 0 0 0 0 0 0 0 0 0 0 0 0 0 0 0 0 0 0 0 0 0 0 0
0 0 0 0 0 0 0 0 0 0 0 0 0 0 0 0 0 0 0 0 0 0 0 0 0 0 0 0 0 0 0 0 0 0 0 0 0 0 0 0 0 0 0
0 0 0 0 0 0 0 0 0 0 0 0 0 0 0 0 0 0 0 0 0 0 0 0 0 0 0 0 0 0 0 0 0 0 0 0 0 0 0 0 0 0 1
0 0 0 0 0 0 0 0 0 0 0 0 0 0 0 0 0 0 0 0 0 0 0 0 0 0 0 0 0 0 0 0 0 0 0 0 0 0 0 0 0 0 4
0 0 0 0 0 0 0 0 0 0 0 0 0 0 0 0 0 0 0 0 0 0 0 0 0 0 0 0 0 0 0 0 0 0 0 0 0 0 0 0 0 10 16
0 0 0 0 0 0 0 0 0 0 0 0 0 0 0 0 0 0 0 0 0 0 0 0 0 0 0 0 0 0 0 0 0 0 0 0 0 0 0 0 0 7 47
0 0 0 0 0 0 0 0 0 0 0 0 0 0 0 0 0 0 0 0 0 0 0 0 0 0 0 0 0 0 0 0 0 0 0 0 0 0 0 0 0 0 43
0 0 0 0 0 0 0 0 0 0 0 0 0 0 0 0 0 0 0 0 0 0 0 0 0 0 0 0 0 0 0 0 0 0 0 0 0 0 0 0 0 0 0
0 0 0 0 0 0 0 0 0 0 0 0 0 0 0 0 0 0 0 0 0 0 0 0 0 0 0 0 0 0 0 0 0 0 0 0 0 0 0 0 0 0 0
0 0 0 0 0 0 0 0 0 0 0 0 0 0 0 0 0 0 0 0 0 0 0 0 0 2 1 0 0 0 0 0 0 0 0 0 0 0 0 0 0 0 0
0 0 0 0 0 0 0 0 0 0 0 0 0 0 0 0 0 0 0 0 0 0 0 0 0 1 4 0 0 0 0 0 0 0 0 0 0 0 0 0 2 2 0
0 0 0 0 0 0 0 0 0 0 0 0 0 0 0 0 0 0 0 0 0 0 0 0 0 1 1 2 2 0 0 0 0 0 0 0 0 0 0 0 0 4 0
0 0 0 0 0 0 0 0 0 0 0 0 0 0 0 0 0 0 0 0 0 0 0 0 0 0 1 1 1 0 2 6 1 1 0 0 0 0 0 0 1 2 2
CIN
-86 -71 -2 -47 -83 -12 -0 -0 -0 -3 -0 -0 -0 -0 -0 -0 -0 -5 -39 -194 -263 -270 -254 -0 -0 -0 -0 -0 -0 -0 -0 -0 -0 -0 -0 -0 -0 -0 -0 -38 -0 -0 -0
-144 -152 -20 -93 -101 -1 -15 -0 -103 -112 -17 -0 -0 -0 -0 -0 -0 -0 -6 -41 -186 -234 -334 -0 -0 -0 -0 -0 -0 -0 -0 -0 -0 -0 -321 -0 -0 -9 -0 -0 -0 -0 -0
-247 -185 -174 -68 -51 -66 -66 -137 -83 -10 -0 -0 -0 -0 -0 -0 -0 -0 -0 -21 -41 -123 -194 -292 -8 -0 -0 -0 -0 -0 -0 -0 -0 -14 -272 -0 -0 -20 -0 -0 -0 -0 -0
-0 -221 -200 -51 -102 -127 -72 -2 -0 -0 -0 -0 -0 -0 -0 -0 -0 -0 -0 -1 -6 -20 -38 -93 -165 -250 -129 -54 -0 -0 -0 -0 -0 -184 -0 -0 -0 -0 -172 -10 -12 -0 -0
-272 -208 -81 -2 -5 -3 -0 -0 -0 -0 -0 -0 -0 -0 -0 -0 -0 -0 -48 -10 -1 -0 -0 -0 -1 -16 -54 -85 -87 -89 -131 -163 -0 -0 -0 -0 -0 -0 -27 -62 -83 -60 -68
-84 -43 -1 -0 -0 -0 -0 -0 -37 -120 -207 -3 -4 -3 -3 -4 -5 -7 -0 -0 -5 -6 -4 -234 -173 -90 -24 -15 -11 -14 -18 -25 -76 -0 -0 -0 -0 -0 -45 -52 -83 -50 -12
-8 -1 -0 -0 -15 -65 -160 -132 -0 -0 -0 -0 -0 -0 -0 -0 -0 -0 -0 -0 -0 -0 -0 -0 -0 -0 -0 -0 -0 -188 -89 -63 -97 -0 -0 -0 -0 -0 -128 -48 -88 -94 -23
-77 -155 -162 -145 -193 -30 -0 -0 -0 -0 -0 -0 -0 -0 -0 -0 -0 -0 -0 -0 -0 -0 -0 -0 -0 -0 -0 -0 -0 -0 -0 -0 -182 -87 -0 -25 -86 -65 -14 -15 -50 -73 -70
-327 -0 -0 -0 -0 -0 -0 -0 -0 -0 -0 -0 -0 -0 -0 -0 -0 -0 -0 -0 -0 -0 -0 -0 -0 -0 -0 -0 -0 -0 -0 -0 -0 -0 -0 -0 -241 -45 -5 -0 -8 -36 -67
-0 -0 -0 -0 -0 -0 -0 -0 -0 -0 -0 -0 -0 -0 -0 -0 -0 -0 -0 -0 -0 -0 -0 -0 -0 -0 -0 -0 -0 -0 -0 -0 -0 -0 -0 -0 -233 -80 -8 -20 -46 -57 -73
-0 -0 -0 -0 -0 -0 -0 -0 -0 -0 -0 -0 -0 -0 -0 -0 -0 -0 -0 -0 -0 -0 -0 -0 -0 -0 -0 -0 -0 -0 -0 -0 -0 -0 -0 -0 -0 -43 -59 -23 -39 -48 -49
-0 -0 -0 -0 -0 -0 -0 -0 -0 -0 -0 -0 -0 -0 -0 -0 -0 -0 -0 -0 -0 -0 -0 -0 -0 -0 -0 -0 -0 -0 -0 -0 -0 -0 -0 -0 -0 -0 -1 -147 -119 -163 -65
-0 -0 -0 -0 -0 -0 -0 -0 -0 -0 -0 -0 -0 -0 -0 -0 -0 -0 -0 -0 -0 -0 -0 -0 -0 -0 -0 -0 -0 -0 -0 -0 -0 -0 -0 -0 -0 -0 -0 -0 -0 -0 -0
-0 -0 -0 -0 -0 -0 -0 -0 -0 -0 -0 -0 -0 -0 -0 -0 -0 -0 -0 -0 -0 -0 -0 -0 -0 -0 -0 -0 -0 -0 -0 -0 -0 -0 -0 -0 -0 -0 -0 -0 -0 -0 -0
-0 -0 -0 -0 -0 -0 -0 -0 -0 -0 -0 -0 -0 -0 -0 -0 -0 -0 -0 -0 -0 -0 -0 -0 -0 -0 -0 -0 -0 -0 -0 -0 -0 -0 -0 -0 -0 -0 -0 -0 -0 -0 -0
-0 -0 -0 -0 -0 -0 -0 -0 -0 -0 -0 -0 -0 -0 -0 -0 -0 -0 -0 -0 -0 -0 -0 -0 -0 -0 -0 -0 -0 -0 -0 -0 -0 -0 -0 -0 -0 -0 -0 -0 -0 -0 -0
-0 -0 -0 -0 -0 -0 -0 -0 -0 -0 -0 -0 -0 -0 -0 -0 -0 -0 -0 -0 -0 -0 -0 -0 -0 -0 -0 -0 -0 -0 -0 -0 -0 -0 -0 -0 -0 -0 -0 -0 -0 -0 -0
-0 -0 -0 -0 -0 -0 -0 -0 -0 -0 -0 -0 -0 -0 -0 -0 -0 -0 -0 -0 -0 -0 -0 -0 -0 -0 -0 -0 -0 -0 -0 -0 -0 -0 -0 -0 -0 -0 -0 -0 -0 -4 -2
-0 -0 -0 -0 -0 -0 -0 -0 -0 -0 -0 -0 -0 -0 -0 -0 -0 -0 -0 -0 -0 -0 -0 -0 -0 -0 -0 -0 -0 -0 -0 -0 -0 -0 -0 -0 -0 -0 -0 -0 -0 -33 -8
-0 -0 -0 -0 -0 -0 -0 -0 -0 -0 -0 -0 -0 -0 -0 -0 -0 -0 -0 -0 -0 -0 -0 -0 -0 -0 -0 -0 -0 -0 -0 -0 -0 -0 -0 -0 -0 -0 -0 -0 -0 -0 -15
-0 -0 -0 -0 -0 -0 -0 -0 -0 -0 -0 -0 -0 -0 -0 -0 -0 -0 -0 -0 -0 -0 -0 -0 -0 -0 -0 -0 -0 -0 -0 -0 -0 -0 -0 -0 -0 -0 -0 -0 -0 -0 -0
-0 -0 -0 -0 -0 -0 -0 -0 -0 -0 -0 -0 -0 -0 -0 -0 -0 -0 -0 -0 -0 -0 -0 -0 -1 -2 -0 -0 -0 -0 -0 -0 -0 -0 -0 -0 -0 -0 -0 -0 -0 -0 -0
-0 -0 -0 -0 -0 -0 -0 -0 -0 -0 -0 -0 -0 -0 -0 -0 -0 -0 -0 -0 -0 -0 -0 -0 -0 -10 -3 -0 -0 -0 -0 -0 -0 -0 -0 -0 -0 -0 -0 -0 -31 -0 -0
-0 -0 -0 -0 -0 -0 -0 -0 -0 -0 -0 -0 -0 -0 -0 -0 -0 -0 -0 -0 -0 -0 -0 -0 -3 -6 -11 -0 -0 -0 -0 -0 -0 -0 -0 -0 -0 -0 -0 -0 -50 -55 -0
-0 -0 -0 -0 -0 -0 -0 -0 -0 -0 -0 -0 -0 -0 -0 -0 -0 -0 -0 -0 -0 -0 -0 -0 -0 -1 -6 -9 -5 -0 -0 -0 -0 -2 -0 -0 -0 -0 -0 -0 -0 -52 -68
-0 -0 -0 -0 -0 -0 -0 -0 -0 -0 -0 -0 -0 -0 -0 -0 -0 -0 -0 -0 -0 -0 -0 -0 -0 -0 -3 -4 -6 -4 -7 -4 -3 -2 -0 -0 -0 -0 -0 -0 -11 -29 -39
Wind_Speed
4 6 11 12 11 10 11 12 11 11 9 7 6 7 7 7 6 6 6 7 6 7 7 7 7 7 6 6 5 4 5 5 6 6 6 6 6 3 6 8 6 4 5
9 6 12 13 12 11 10 10 9 9 10 10 6 8 7 5 5 4 4 4 5 5 5 5 5 5 5 4 4 4 4 4 5 6 5 6 7 6 1 5 5 3 4
10 9 10 13 12 11 10 10 9 9 9 9 9 8 8 7 7 8 4 2 4 5 5 4 4 3 3 3 3 4 5 6 7 7 6 4 5 8 5 4 4 2 2
11 8 8 12 12 11 10 9 9 8 8 7 6 6 6 6 7 8 10 4 4 5 6 5 5 5 4 4 4 5 6 7 8 8 4 3 5 8 8 7 5 4 3
10 8 9 12 12 11 9 8 7 9 10 9 9 9 9 9 9 9 8 9 9 10 10 9 8 8 7 7 7 8 8 7 6 7 6 5 4 7 12 9 7 7 7
8 7 9 11 12 12 11 11 10 9 9 8 8 7 7 7 7 8 8 9 10 10 11 12 12 13 13 11 11 11 10 9 7 5 5 6 5 8 12 9 8 7 10
7 6 8 13 13 12 11 10 10 9 8 8 8 8 8 8 8 8 8 8 9 10 11 11 12 12 12 13 13 14 15 11 5 5 5 6 5 11 14 12 11 10 9
13 7 7 11 12 12 11 10 9 7 7 7 8 9 10 8 7 8 7 7 9 12 12 12 13 13 13 14 15 15 13 12 7 5 6 6 10 14 14 14 13 11 10
10 9 6 5 7 10 9 8 7 6 6 7 8 10 11 10 8 7 7 7 10 10 11 12 13 13 13 14 15 15 14 13 7 4 6 5 12 17 16 14 15 12 11
8 7 6 5 5 5 4 6 6 5 6 7 8 9 10 11 12 10 11 11 12 11 13 12 13 12 14 15 15 14 12 12 6 5 4 6 16 19 18 15 14 12 12
5 6 6 5 5 4 3 3 6 6 8 7 7 9 7 4 6 7 10 13 14 14 13 13 14 13 12 11 13 13 10 4 5 4 3 12 15 15 17 14 13 11 9
5 5 5 5 4 4 3 4 4 4 3 4 4 5 4 6 5 7 9 13 14 13 14 13 13 13 10 4 4 9 3 5 4 4 3 11 14 14 11 8 6 6 6
5 4 5 5 5 5 4 2 2 2 2 3 5 4 4 4 4 4 4 4 4 8 4 6 6 4 6 5 5 5 5 5 3 3 5 10 11 11 11 8 6 6 8
5 6 5 4 5 5 3 2 3 3 2 2 4 4 4 3 4 4 3 5 4 4 5 5 3 5 6 6 6 6 6 4 3 3 4 8 8 8 8 9 8 9 9
6 5 5 4 4 4 5 3 2 3 2 2 3 3 3 3 3 3 4 4 4 4 3 5 5 5 5 6 5 5 6 6 6 3 3 7 7 7 6 7 8 9 9
6 6 5 5 4 4 3 3 2 3 2 3 2 3 4 2 3 3 4 4 4 4 4 4 4 4 5 5 6 6 6 5 6 5 3 4 8 7 7 6 7 6 6
6 6 7 6 4 4 3 2 2 1 2 1 2 4 3 3 3 4 3 4 4 4 5 5 5 4 5 5 6 5 5 6 5 5 3 3 4 6 7 7 5 5 7
6 7 6 5 5 4 3 2 1 0 1 2 2 2 3 4 4 4 4 4 4 4 3 4 3 4 4 4 4 5 4 5 4 3 4 3 3 3 5 7 6 7 8
8 8 6 5 5 5 3 1 0 1 2 2 2 2 3 3 3 3 3 4 5 4 4 3 2 2 3 6 7 5 4 3 3 3 6 7 6 5 3 5 6 8 9
7 7 7 5 5 4 2 1 1 2 2 2 2 2 2 2 2 2 3 4 4 4 4 4 3 3 2 4 6 5 4 3 4 4 5 5 5 6 5 5 4 4 13
6 7 7 6 5 3 1 1 1 1 2 2 2 4 3 2 2 2 2 3 4 3 4 4 3 5 3 5 4 4 3 5 6 4 4 4 6 6 6 5 2 3 4
7 7 6 6 5 4 2 2 2 1 2 3 3 4 4 3 4 3 2 3 3 3 5 5 5 4 6 4 2 0 4 4 5 4 4 5 7 5 7 5 3 5 4
5 6 6 6 6 4 4 2 1 1 2 2 2 3 3 4 4 4 3 3 3 2 3 4 4 6 5 4 5 2 3 2 3 3 4 4 6 4 5 4 3 3 4
5 3 4 4 5 3 4 2 2 2 1 2 2 2 5 5 6 5 5 4 3 2 3 3 2 3 3 5 4 3 1 2 2 5 3 4 5 5 5 5 1 2 3
4 3 3 3 3 2 3 3 2 2 2 2 3 5 5 5 5 5 5 5 4 3 3 3 3 4 3 2 2 4 4 4 4 3 3 5 4 4 4 4 4 1 1
3 3 3 3 1 1 1 2 2 4 5 4 4 4 4 4 4 5 4 4 5 4 4 3 3 4 3 3 2 2 2 2 3 3 5 6 6 4 6 5 2 3 3
Wind_Direction
167 151 137 131 127 118 96 96 79 75 66 120 90 68 79 80 67 61 61 62 58 57 56 60 59 55 52 49 46 38 24 13 10 12 360 343 341 18 83 116 87 63 65
137 144 134 132 127 116 104 97 87 79 72 84 71 97 64 68 65 48 51 52 52 52 51 48 47 47 45 40 23 359 343 337 334 339 339 322 306 295 150 122 116 100 82
131 136 133 132 128 121 112 103 94 86 79 76 73 69 64 59 48 34 18 51 28 19 16 18 15 11 8 2 348 334 326 322 320 320 325 312 289 251 236 194 157 155 126
132 130 131 133 129 123 117 109 99 89 82 77 76 64 61 54 47 35 23 45 18 358 346 334 326 318 315 311 306 305 309 313 315 316 327 307 325 245 227 215 208 208 187
125 130 133 131 128 123 120 111 101 86 74 60 45 42 38 32 33 28 18 17 11 6 354 339 315 300 294 293 293 296 295 293 293 311 312 305 293 266 220 218 229 235 225
123 126 133 132 117 104 101 93 87 79 70 63 56 45 33 26 22 23 19 17 11 4 357 351 343 344 353 334 306 286 278 276 282 289 293 297 307 290 239 217 223 233 238
109 107 111 112 110 105 100 93 84 79 70 56 42 31 19 11 10 15 17 11 6 357 348 343 339 335 335 334 328 325 334 312 275 274 280 284 280 282 264 233 229 232 229
123 107 97 105 110 107 102 95 86 72 59 44 30 20 11 359 355 2 1 357 352 348 343 339 334 331 329 326 322 319 319 316 309 285 275 278 275 279 267 234 233 234 235
112 110 100 93 102 103 101 97 88 70 52 39 22 15 11 7 348 343 349 334 347 352 348 343 342 335 332 331 327 320 313 304 288 270 284 279 280 283 280 254 235 238 245
112 117 120 123 115 108 109 104 83 65 46 35 40 29 26 21 14 359 355 349 344 341 340 340 343 341 337 343 338 331 320 322 314 294 282 279 282 283 285 276 266 239 250
98 127 134 139 131 124 112 92 47 27 42 41 28 28 25 19 10 14 13 14 7 358 357 354 351 357 357 350 345 342 337 330 334 312 302 304 319 295 284 286 275 272 282
131 123 129 134 122 119 82 71 53 55 49 52 30 33 17 23 11 13 10 7 1 3 1 1 360 358 353 335 326 335 329 331 328 319 305 326 334 330 310 326 329 349 355
136 109 126 117 108 97 82 68 58 41 51 31 38 34 16 22 4 7 5 355 348 360 359 358 349 342 336 331 328 323 321 323 313 306 311 333 344 339 335 349 342 333 326
139 135 135 126 110 93 93 71 76 69 41 39 37 20 36 10 8 3 1 343 354 347 346 341 335 329 335 334 332 326 326 318 313 309 316 337 352 344 331 324 322 316 317
144 151 159 139 115 111 91 76 65 58 45 38 35 7 34 24 5 349 352 352 344 340 336 336 337 335 330 332 326 328 325 326 328 320 319 332 356 3 348 324 312 313 326
157 167 173 149 131 119 107 93 80 57 35 48 11 1 15 33 0 17 356 347 336 331 329 334 326 327 327 334 327 325 320 326 323 325 325 329 343 6 5 351 340 330 354
174 173 178 154 143 127 122 114 117 77 48 15 15 350 10 15 19 13 352 340 325 321 335 341 344 345 346 338 329 318 322 325 322 331 342 354 349 3 13 20 5 27 1
165 183 179 159 149 142 150 177 113 256 277 23 341 324 1 7 28 4 352 334 327 333 343 345 355 344 346 342 318 312 319 327 340 0 13 10 352 344 348 3 25 13 359
180 175 178 164 166 162 172 199 231 328 8 314 293 325 341 356 19 12 341 331 345 347 358 353 343 8 343 339 322 313 320 322 349 1 12 11 359 350 338 342 11 29 22
180 180 172 170 175 172 135 358 352 351 306 277 300 267 310 322 355 9 353 348 353 355 354 357 338 334 329 322 326 333 349 33 20 27 24 15 359 358 351 343 21 25 60
178 178 181 167 185 143 139 242 42 301 303 297 277 279 283 294 311 343 340 342 346 352 326 336 325 339 336 341 355 347 354 41 36 47 27 17 6 354 1 9 46 65 45
172 183 180 189 177 186 160 181 149 196 257 259 286 297 289 285 265 277 277 301 310 339 360 353 335 338 353 20 339 268 2 332 5 4 12 15 1 345 8 6 69 92 74
186 192 192 195 189 189 168 114 56 17 345 328 332 317 316 293 272 262 259 255 296 349 336 335 338 346 343 340 17 95 8 328 328 329 351 358 358 353 347 346 67 101 91
215 212 211 195 182 177 157 136 166 187 256 262 279 290 306 307 296 281 254 246 257 283 307 304 339 330 339 339 339 358 333 337 343 328 329 330 338 352 353 333 355 95 108
152 178 177 164 161 155 162 169 179 241 239 273 300 314 313 306 302 294 259 250 246 254 269 294 325 321 305 311 343 326 326 314 298 294 303 328 338 337 325 291 288 146 75
134 137 139 144 189 257 217 220 232 264 298 317 310 310 306 305 308 308 293 248 243 250 248 256 269 278 292 305 292 300 294 313 314 303 304 321 315 309 326 322 88 47 18